When you browse on this site, cookies collect data to enhance your experience and personalize the content and advertising you see.
Visit our Privacy Policy to learn more. By continuing to use the site, you agree to this use of cookies and data.
  • In Portugal
  • List of Countries
  • For 7 days
  • Water Temperature
  • Satellite Maps
  • Weather Map
  • Weather Widgets
  • user-avatar
    Login

    Hourly Weather Alinowo

    Today, 20 April, Saturday

    Time Temperature Precipitation Wind Pressure Humidity
    00:00 +8°C° 0 mm 3 mps 764 mmHg 58%
    01:00 +7°C° 0 mm 3 mps 764 mmHg 55%
    02:00 +5°C° 0 mm 3 mps 764 mmHg 54%
    03:00 +5°C° 0 mm 2 mps 763 mmHg 53%
    04:00 +5°C° 0 mm 2 mps 763 mmHg 52%
    05:00 +6°C° 0 mm 2 mps 763 mmHg 53%
    06:00 +6°C° 0 mm 2 mps 763 mmHg 54%
    07:00 +7°C° 0 mm 2 mps 763 mmHg 54%
    08:00 +10°C° 0 mm 3 mps 763 mmHg 51%
    09:00 +12°C° 0 mm 3 mps 763 mmHg 48%
    10:00 +14°C° 0 mm 3 mps 763 mmHg 45%
    11:00 +16°C° 0 mm 3 mps 763 mmHg 43%
    12:00 +17°C° 0 mm 3 mps 763 mmHg 41%
    13:00 +18°C° 0 mm 3 mps 762 mmHg 39%
    14:00 +18°C° 0 mm 3 mps 762 mmHg 38%
    15:00 +18°C° 0 mm 4 mps 762 mmHg 37%
    16:00 +18°C° 0 mm 4 mps 761 mmHg 37%
    17:00 +17°C° 0 mm 3 mps 761 mmHg 42%
    18:00 +14°C° 0 mm 3 mps 761 mmHg 48%
    19:00 +12°C° 0 mm 3 mps 761 mmHg 54%
    20:00 +10°C° 0 mm 3 mps 761 mmHg 55%
    21:00 +9°C° 0 mm 3 mps 761 mmHg 56%
    22:00 +8°C° 0 mm 3 mps 761 mmHg 58%
    23:00 +7°C° 0 mm 3 mps 761 mmHg 60%

    Tomorrow, 21 April, Sunday

    Time Temperature Precipitation Wind Pressure Humidity
    00:00 +7°C° 0 mm 3 mps 761 mmHg 62%
    01:00 +6°C° 0 mm 2 mps 761 mmHg 64%
    02:00 +5°C° 0 mm 2 mps 761 mmHg 66%
    03:00 +5°C° 0 mm 2 mps 761 mmHg 68%
    04:00 +5°C° 0 mm 2 mps 760 mmHg 70%
    05:00 +6°C° 0 mm 2 mps 760 mmHg 66%
    06:00 +7°C° 0 mm 2 mps 760 mmHg 63%
    07:00 +8°C° 0 mm 2 mps 760 mmHg 60%
    08:00 +10°C° 0 mm 2 mps 760 mmHg 54%
    09:00 +13°C° 0 mm 2 mps 760 mmHg 48%
    10:00 +14°C° 0 mm 3 mps 759 mmHg 42%
    11:00 +16°C° 0 mm 3 mps 759 mmHg 40%
    12:00 +17°C° 0 mm 3 mps 758 mmHg 38%
    13:00 +18°C° 0 mm 3 mps 758 mmHg 36%
    14:00 +18°C° 0 mm 3 mps 757 mmHg 37%
    15:00 +18°C° 0 mm 3 mps 757 mmHg 38%
    16:00 +18°C° 0 mm 3 mps 756 mmHg 39%
    17:00 +17°C° 0 mm 3 mps 756 mmHg 43%
    18:00 +16°C° 0 mm 3 mps 756 mmHg 48%
    19:00 +13°C° 0 mm 3 mps 756 mmHg 53%
    20:00 +12°C° 0 mm 3 mps 756 mmHg 57%
    21:00 +11°C° 0 mm 4 mps 756 mmHg 61%
    22:00 +8°C° 0 mm 4 mps 756 mmHg 64%
    23:00 +7°C° 0 mm 4 mps 756 mmHg 71%

    Day after tomorrow, 22 April, Monday

    Time Temperature Precipitation Wind Pressure Humidity
    00:00 +7°C° 0 mm 3 mps 756 mmHg 78%
    01:00 +6°C° 0 mm 2 mps 756 mmHg 85%
    02:00 +5°C° 0 mm 2 mps 756 mmHg 87%
    03:00 +5°C° 0 mm 2 mps 755 mmHg 89%
    04:00 +4°C° 0 mm 2 mps 755 mmHg 91%
    05:00 +4°C° 0 mm 3 mps 755 mmHg 84%
    06:00 +7°C° 0 mm 3 mps 755 mmHg 77%
    07:00 +8°C° 0 mm 3 mps 755 mmHg 71%
    08:00 +8°C° 0 mm 4 mps 755 mmHg 66%
    09:00 +11°C° 0 mm 4 mps 755 mmHg 61%
    10:00 +13°C° 0 mm 5 mps 755 mmHg 56%
    11:00 +14°C° 0 mm 6 mps 755 mmHg 54%
    12:00 +15°C° 0 mm 6 mps 755 mmHg 51%
    13:00 +15°C° 0 mm 7 mps 755 mmHg 49%
    14:00 +15°C° 0 mm 7 mps 754 mmHg 50%
    15:00 +15°C° 0 mm 7 mps 754 mmHg 52%
    16:00 +15°C° 0 mm 7 mps 754 mmHg 53%
    17:00 +14°C° 0 mm 6 mps 754 mmHg 58%
    18:00 +13°C° 0 mm 5 mps 754 mmHg 63%
    19:00 +12°C° 0 mm 5 mps 754 mmHg 68%
    20:00 +12°C° 0 mm 5 mps 754 mmHg 68%
    21:00 +10°C° 0 mm 6 mps 754 mmHg 67%
    22:00 +10°C° 0 mm 6 mps 754 mmHg 66%
    23:00 +9°C° 0 mm 7 mps 754 mmHg 64%

    23 April, Tuesday

    Time Temperature Precipitation Wind Pressure Humidity
    00:00 +9°C° 0 mm 7 mps 754 mmHg 61%
    01:00 +9°C° 0 mm 8 mps 754 mmHg 59%
    02:00 +7°C° 0 mm 8 mps 753 mmHg 60%
    03:00 +7°C° 0 mm 8 mps 753 mmHg 60%
    04:00 +6°C° 0 mm 8 mps 753 mmHg 61%
    05:00 +7°C° 0 mm 9 mps 752 mmHg 61%
    06:00 +7°C° 0 mm 9 mps 752 mmHg 61%
    07:00 +8°C° 0 mm 10 mps 752 mmHg 62%
    08:00 +9°C° 0 mm 10 mps 752 mmHg 59%
    09:00 +12°C° 0 mm 10 mps 752 mmHg 56%
    10:00 +13°C° 0 mm 10 mps 751 mmHg 53%
    11:00 +14°C° 0 mm 10 mps 751 mmHg 52%
    12:00 +16°C° 0 mm 10 mps 751 mmHg 51%
    13:00 +16°C° 0 mm 10 mps 750 mmHg 50%
    14:00 +16°C° 0 mm 10 mps 750 mmHg 51%
    15:00 +16°C° 0 mm 9 mps 749 mmHg 52%
    16:00 +16°C° 0 mm 8 mps 749 mmHg 53%
    17:00 +15°C° 0 mm 9 mps 749 mmHg 54%
    18:00 +15°C° 0 mm 9 mps 749 mmHg 54%
    19:00 +13°C° 0 mm 9 mps 749 mmHg 55%
    20:00 +12°C° 0.2 mm 9 mps 749 mmHg 63%
    21:00 +11°C° 0.2 mm 9 mps 748 mmHg 71%
    22:00 +8°C° 0.2 mm 9 mps 748 mmHg 79%
    23:00 +8°C° 1.6 mm 9 mps 748 mmHg 80%

    24 April, Wednesday

    Time Temperature Precipitation Wind Pressure Humidity
    00:00 +10°C° 1.6 mm 8 mps 748 mmHg 81%
    01:00 +10°C° 1.6 mm 8 mps 747 mmHg 83%
    02:00 +9°C° 0.2 mm 7 mps 747 mmHg 82%
    03:00 +9°C° 0.2 mm 7 mps 747 mmHg 82%
    04:00 +9°C° 0.2 mm 6 mps 747 mmHg 82%
    05:00 +10°C° 0 mm 7 mps 747 mmHg 79%
    06:00 +11°C° 0 mm 8 mps 747 mmHg 77%
    07:00 +12°C° 0 mm 8 mps 747 mmHg 75%
    08:00 +15°C° 0 mm 8 mps 748 mmHg 71%
    09:00 +16°C° 0 mm 8 mps 748 mmHg 67%
    10:00 +18°C° 0 mm 8 mps 748 mmHg 63%
    11:00 +18°C° 0 mm 8 mps 748 mmHg 62%
    12:00 +20°C° 0 mm 8 mps 748 mmHg 60%
    13:00 +21°C° 0 mm 7 mps 748 mmHg 59%
    14:00 +21°C° 0 mm 7 mps 748 mmHg 59%
    15:00 +21°C° 0 mm 7 mps 748 mmHg 59%
    16:00 +21°C° 0 mm 6 mps 748 mmHg 59%
    17:00 +20°C° 0 mm 5 mps 748 mmHg 64%
    18:00 +19°C° 0 mm 4 mps 749 mmHg 70%
    19:00 +17°C° 0 mm 4 mps 749 mmHg 75%
    20:00 +17°C° 0 mm 4 mps 749 mmHg 77%
    21:00 +15°C° 0 mm 4 mps 750 mmHg 79%
    22:00 +14°C° 0 mm 4 mps 750 mmHg 81%
    23:00 +14°C° 0 mm 4 mps 750 mmHg 81%

    25 April, Thursday

    Time Temperature Precipitation Wind Pressure Humidity
    00:00 +13°C° 0 mm 4 mps 750 mmHg 82%
    01:00 +13°C° 0 mm 4 mps 750 mmHg 82%
    02:00 +13°C° 0 mm 4 mps 750 mmHg 83%
    03:00 +12°C° 0 mm 4 mps 750 mmHg 83%
    04:00 +12°C° 0 mm 3 mps 750 mmHg 84%
    05:00 +13°C° 0 mm 4 mps 750 mmHg 81%
    06:00 +14°C° 0 mm 5 mps 750 mmHg 78%
    07:00 +16°C° 0 mm 5 mps 750 mmHg 75%
    08:00 +17°C° 0 mm 5 mps 750 mmHg 71%
    09:00 +20°C° 0 mm 5 mps 750 mmHg 67%
    10:00 +21°C° 0 mm 6 mps 750 mmHg 62%
    11:00 +22°C° 0 mm 5 mps 749 mmHg 60%
    12:00 +23°C° 0 mm 5 mps 749 mmHg 58%
    13:00 +25°C° 0 mm 5 mps 749 mmHg 55%
    14:00 +25°C° 0 mm 5 mps 749 mmHg 55%
    15:00 +25°C° 0 mm 5 mps 749 mmHg 54%
    16:00 +25°C° 0 mm 5 mps 748 mmHg 53%
    17:00 +23°C° 0 mm 4 mps 748 mmHg 60%
    18:00 +21°C° 0 mm 4 mps 748 mmHg 67%
    19:00 +19°C° 0 mm 3 mps 748 mmHg 74%
    20:00 +19°C° 0 mm 3 mps 748 mmHg 74%
    21:00 +18°C° 0 mm 4 mps 748 mmHg 74%
    22:00 +18°C° 0 mm 4 mps 748 mmHg 75%
    23:00 +17°C° 0 mm 4 mps 748 mmHg 74%
    Show more